Tiempo cada hora Goldsboro

Hoy, 26 Noviembre, Jueves

Tiempo Temperatura Precipitaciones Viento Presión Humedad
00:00 +19°C° 0.1 mm 5 mps 763 mmHg 88%
01:00 +19°C° 0 mm 5 mps 763 mmHg 88%
02:00 +19°C° 0 mm 5 mps 763 mmHg 89%
03:00 +19°C° 0 mm 5 mps 762 mmHg 89%
04:00 +19°C° 0 mm 5 mps 762 mmHg 90%
05:00 +19°C° 0 mm 4 mps 762 mmHg 91%
06:00 +18°C° 0 mm 4 mps 762 mmHg 93%
07:00 +18°C° 0 mm 3 mps 762 mmHg 94%
08:00 +19°C° 0.1 mm 4 mps 762 mmHg 88%
09:00 +20°C° 0.1 mm 4 mps 762 mmHg 83%
10:00 +21°C° 0.1 mm 5 mps 762 mmHg 77%
11:00 +22°C° 0.4 mm 5 mps 762 mmHg 76%
12:00 +22°C° 0.4 mm 4 mps 762 mmHg 74%
13:00 +23°C° 0.4 mm 4 mps 761 mmHg 72%
14:00 +23°C° 0 mm 4 mps 761 mmHg 72%
15:00 +24°C° 0 mm 3 mps 761 mmHg 73%
16:00 +24°C° 0 mm 3 mps 761 mmHg 73%
17:00 +22°C° 0.1 mm 3 mps 761 mmHg 77%
18:00 +21°C° 0.1 mm 2 mps 761 mmHg 82%
19:00 +20°C° 0.1 mm 2 mps 761 mmHg 87%
20:00 +20°C° 0.1 mm 2 mps 761 mmHg 87%
21:00 +19°C° 0.1 mm 2 mps 761 mmHg 88%
22:00 +20°C° 0.1 mm 1 mps 761 mmHg 88%
23:00 +20°C° 0 mm 1 mps 761 mmHg 89%

Mañana, 27 Noviembre, Viernes

Tiempo Temperatura Precipitaciones Viento Presión Humedad
00:00 +20°C° 0 mm 1 mps 761 mmHg 90%
01:00 +19°C° 0 mm 1 mps 761 mmHg 91%
02:00 +19°C° 0.1 mm 1 mps 761 mmHg 92%
03:00 +19°C° 0.1 mm 1 mps 761 mmHg 94%
04:00 +18°C° 0.1 mm 1 mps 761 mmHg 95%
05:00 +16°C° 0.2 mm 0 mps 761 mmHg 95%
06:00 +16°C° 0.2 mm 0 mps 761 mmHg 96%
07:00 +16°C° 0.2 mm 0 mps 761 mmHg 97%
08:00 +17°C° 0 mm 0 mps 761 mmHg 93%
09:00 +18°C° 0 mm 0 mps 761 mmHg 89%
10:00 +19°C° 0 mm 0 mps 761 mmHg 85%
11:00 +21°C° 0.1 mm 1 mps 761 mmHg 84%
12:00 +21°C° 0.1 mm 1 mps 760 mmHg 83%
13:00 +21°C° 0.1 mm 2 mps 760 mmHg 82%
14:00 +21°C° 0 mm 2 mps 759 mmHg 78%
15:00 +21°C° 0 mm 2 mps 759 mmHg 74%
16:00 +21°C° 0 mm 2 mps 759 mmHg 71%
17:00 +19°C° 0 mm 2 mps 759 mmHg 76%
18:00 +18°C° 0 mm 2 mps 759 mmHg 80%
19:00 +17°C° 0 mm 2 mps 760 mmHg 85%
20:00 +16°C° 0 mm 2 mps 760 mmHg 86%
21:00 +16°C° 0 mm 2 mps 760 mmHg 87%
22:00 +15°C° 0 mm 1 mps 760 mmHg 88%
23:00 +15°C° 0 mm 1 mps 760 mmHg 88%

Pasado mañana, 28 Noviembre, Sábado

Tiempo Temperatura Precipitaciones Viento Presión Humedad
00:00 +14°C° 0 mm 0 mps 760 mmHg 89%
01:00 +13°C° 0 mm 0 mps 759 mmHg 90%
02:00 +13°C° 0 mm 0 mps 759 mmHg 89%
03:00 +13°C° 0 mm 0 mps 759 mmHg 89%
04:00 +13°C° 0 mm 0 mps 759 mmHg 89%
05:00 +13°C° 0 mm 0 mps 759 mmHg 89%
06:00 +13°C° 0 mm 0 mps 760 mmHg 88%
07:00 +14°C° 0 mm 1 mps 760 mmHg 88%
08:00 +14°C° 0 mm 1 mps 760 mmHg 85%
09:00 +15°C° 0 mm 1 mps 761 mmHg 82%
10:00 +16°C° 0 mm 1 mps 761 mmHg 79%
11:00 +16°C° 0 mm 1 mps 761 mmHg 73%
12:00 +18°C° 0 mm 1 mps 761 mmHg 67%
13:00 +18°C° 0 mm 2 mps 760 mmHg 60%
14:00 +18°C° 0 mm 2 mps 760 mmHg 59%
15:00 +18°C° 0 mm 2 mps 760 mmHg 58%
16:00 +18°C° 0 mm 2 mps 761 mmHg 56%
17:00 +17°C° 0 mm 2 mps 761 mmHg 59%
18:00 +16°C° 0 mm 2 mps 761 mmHg 62%
19:00 +14°C° 0 mm 2 mps 762 mmHg 65%
20:00 +14°C° 0 mm 2 mps 762 mmHg 65%
21:00 +13°C° 0 mm 2 mps 762 mmHg 65%
22:00 +13°C° 0 mm 2 mps 763 mmHg 65%
23:00 +12°C° 0 mm 2 mps 763 mmHg 66%

29 Noviembre, Domingo

Tiempo Temperatura Precipitaciones Viento Presión Humedad
00:00 +10°C° 0 mm 2 mps 763 mmHg 68%
01:00 +10°C° 0 mm 2 mps 763 mmHg 69%
02:00 +9°C° 0 mm 2 mps 763 mmHg 73%
03:00 +9°C° 0 mm 2 mps 763 mmHg 78%
04:00 +8°C° 0 mm 2 mps 763 mmHg 82%
05:00 +8°C° 0 mm 2 mps 764 mmHg 85%
06:00 +8°C° 0 mm 2 mps 764 mmHg 87%
07:00 +8°C° 0 mm 2 mps 764 mmHg 90%
08:00 +9°C° 0 mm 2 mps 764 mmHg 85%
09:00 +12°C° 0 mm 2 mps 765 mmHg 80%
10:00 +13°C° 0 mm 2 mps 765 mmHg 76%
11:00 +15°C° 0 mm 2 mps 764 mmHg 69%
12:00 +16°C° 0 mm 2 mps 764 mmHg 61%
13:00 +17°C° 0 mm 2 mps 763 mmHg 54%
14:00 +17°C° 0 mm 2 mps 763 mmHg 57%
15:00 +18°C° 0 mm 1 mps 763 mmHg 60%
16:00 +18°C° 0 mm 1 mps 762 mmHg 63%
17:00 +16°C° 0 mm 1 mps 762 mmHg 68%
18:00 +15°C° 0 mm 2 mps 762 mmHg 72%
19:00 +14°C° 0 mm 2 mps 762 mmHg 76%
20:00 +14°C° 0 mm 2 mps 761 mmHg 76%
21:00 +13°C° 0 mm 3 mps 760 mmHg 75%
22:00 +13°C° 0 mm 3 mps 760 mmHg 75%
23:00 +14°C° 0.5 mm 4 mps 759 mmHg 79%

30 Noviembre, Lunes

Tiempo Temperatura Precipitaciones Viento Presión Humedad
00:00 +14°C° 0.5 mm 4 mps 758 mmHg 83%
01:00 +14°C° 0.5 mm 5 mps 756 mmHg 86%
02:00 +14°C° 4 mm 6 mps 755 mmHg 89%
03:00 +15°C° 4 mm 7 mps 753 mmHg 92%
04:00 +15°C° 4 mm 8 mps 752 mmHg 94%
05:00 +16°C° 3.9 mm 7 mps 750 mmHg 94%
06:00 +17°C° 3.9 mm 6 mps 749 mmHg 93%
07:00 +19°C° 3.9 mm 6 mps 748 mmHg 93%
08:00 +20°C° 1.1 mm 8 mps 747 mmHg 88%
09:00 +21°C° 1.1 mm 9 mps 746 mmHg 83%
10:00 +22°C° 1.1 mm 11 mps 745 mmHg 78%
11:00 +21°C° 0.5 mm 11 mps 745 mmHg 71%
12:00 +21°C° 0.5 mm 11 mps 745 mmHg 65%
13:00 +19°C° 0.5 mm 11 mps 745 mmHg 59%
14:00 +18°C° 0 mm 10 mps 745 mmHg 63%
15:00 +17°C° 0 mm 9 mps 745 mmHg 67%
16:00 +16°C° 0 mm 9 mps 745 mmHg 71%
17:00 +16°C° 0 mm 9 mps 745 mmHg 69%
18:00 +15°C° 0 mm 9 mps 746 mmHg 68%
19:00 +13°C° 0 mm 9 mps 747 mmHg 67%
20:00 +12°C° 0 mm 9 mps 747 mmHg 63%
21:00 +11°C° 0 mm 8 mps 748 mmHg 58%
22:00 +10°C° 0 mm 8 mps 749 mmHg 53%
23:00 +9°C° 0 mm 7 mps 749 mmHg 53%

1 Diciembre, Martes

Tiempo Temperatura Precipitaciones Viento Presión Humedad
00:00 +6°C° 0 mm 7 mps 749 mmHg 53%
01:00 +5°C° 0 mm 6 mps 750 mmHg 53%
02:00 +4°C° 0 mm 6 mps 750 mmHg 56%
03:00 +4°C° 0 mm 7 mps 750 mmHg 58%
04:00 +3°C° 0 mm 7 mps 751 mmHg 60%
05:00 +2°C° 0 mm 7 mps 751 mmHg 60%
06:00 0°C° 0 mm 7 mps 752 mmHg 59%
07:00 -1°C° 0 mm 7 mps 752 mmHg 59%
08:00 0°C° 0 mm 7 mps 753 mmHg 57%
09:00 0°C° 0 mm 8 mps 753 mmHg 54%
10:00 +1°C° 0 mm 8 mps 753 mmHg 52%
11:00 +2°C° 0 mm 8 mps 753 mmHg 50%
12:00 +4°C° 0 mm 8 mps 753 mmHg 48%
13:00 +5°C° 0 mm 8 mps 753 mmHg 46%
14:00 +5°C° 0 mm 7 mps 754 mmHg 47%
15:00 +5°C° 0 mm 7 mps 754 mmHg 47%
16:00 +5°C° 0 mm 6 mps 754 mmHg 48%
17:00 +5°C° 0 mm 6 mps 755 mmHg 50%
18:00 +4°C° 0 mm 6 mps 756 mmHg 51%
19:00 +5°C° 0 mm 5 mps 756 mmHg 52%
20:00 +3°C° 0 mm 5 mps 757 mmHg 52%
21:00 +3°C° 0 mm 5 mps 757 mmHg 52%
22:00 +3°C° 0 mm 5 mps 758 mmHg 51%
23:00 +3°C° 0 mm 4 mps 758 mmHg 52%
Mostrar más

Necesitamos Su Consentimiento

Meteoprog y nuestros Proveedores de Servicios pueden almacenar y acceder a sus datos personales como cookies, identificadores de dispositivo u otras tecnologías similares de su dispositivo y procesar dichos datos para personalizar contenido y anuncios, además de ofrecer funciones de redes sociales y analizar el tráfico.

  • Almacenar y/o acceder a información en su dispositivo

    Se puede almacenar o acceder a cookies, identificadores de dispositivo u otra información de su dispositivo para los fines anteriormente indicados.

  • Anuncios y contenido personalizados, medición de anuncios y contenido, percepciones del público, y desarrollo de productos

    Los anuncios y el contenido pueden personalizarse en base a su perfil. Se pueden añadir más datos para personalizar mejor los anuncios y contenidos. Se puede medir el rendimiento de los anuncios y contenidos. Se puede obtener la percepción sobre el público que ha visto los anuncios y contenidos. Dichos datos pueden usarse para desarrollar o mejorar la experiencia del usuario, sistemas y software.

Al hacer clic en ‘Estoy De Acuerdo’ usted permitirá el uso de las cookies, identificadores de dispositivo, balizas web u otras tecnologías similares indicadas. Su configuración puede cambiarse desde el navegador de su dispositivo.

Para ciertos fines, los intereses legítimos pueden ser considerados por encima del consentimiento. Puede leer más sobre ello en nuestra Política de Privacidad y Cookies.